Weather History for KCXO - November, 2012

Change the Weather History Date:

Wednesday, November 14, 2012

  Actual Average Record
Temperature  
Mean Temperature 50 °F -  
Max Temperature 64 °F 67 °F 84 °F (2005)
Min Temperature 36 °F 46 °F 28 °F (2014)
Degree Days  
Heating Degree Days 14    
Moisture  
Dew Point 36 °F    
Average Humidity 65    
Maximum Humidity 97    
Minimum Humidity 24    
Precipitation  
Precipitation 0.00 in - - ()
Sea Level Pressure  
Sea Level Pressure 30.35 in    
Wind  
Wind Speed 1 mph (North)    
Max Wind Speed 9 mph    
Max Gust Speed -    
Visibility 10 miles    
Events      
Averages and records for this station are not official NWS values.
T = Trace of Precipitation, MM = Missing Value Source: NWS Daily Summary

Daily Weather History Graph

Daily Weather History Graph

Search for Another Location

Airport or City:

Trip Planner

Search our weather history database for the weather conditions in past years. The results will help you decide how hot, cold, wet, or windy it might be!

Date:

Astronomy

Nov. 14, 2012 Rise Set
Actual Time 6:46 AM CST 5:25 PM CST
Civil Twilight 6:21 AM CST 5:50 PM CST
Nautical Twilight 5:52 AM CST 6:19 PM CST
Astronomical Twilight 5:24 AM CST 6:48 PM CST
Moon 7:33 AM CST (11/14) 6:18 PM CST (11/14)
Length of Visible Light 11h 28m
Length of Day
10h 38m
New Moon, 1% of the Moon is Illuminated
Nov 14
New Moon
Nov 20
First Quarter
Nov 28
Full
Dec 6
Last Quarter
Dec 13
New

Hourly Weather History & Observations

Time (CST) Temp. Windchill Dew Point Humidity Pressure Visibility Wind Dir Wind Speed Gust Speed Precip Events Conditions
12:53 AM 46.0 °F - 43.0 °F 89% 30.37 in 10.0 mi Calm Calm - N/A   Mostly Cloudy
1:53 AM 48.0 °F - 43.0 °F 83% 30.37 in 10.0 mi Calm Calm - N/A   Overcast
2:53 AM 48.0 °F - 41.0 °F 77% 30.37 in 10.0 mi Calm Calm - N/A   Overcast
3:53 AM 48.0 °F - 37.9 °F 68% 30.36 in 10.0 mi Calm Calm - N/A   Overcast
4:53 AM 48.0 °F - 37.9 °F 68% 30.36 in 10.0 mi Calm Calm - N/A   Overcast
5:53 AM 46.9 °F - 42.1 °F 83% 30.38 in 10.0 mi Calm Calm - N/A   Overcast
6:53 AM 46.0 °F - 42.1 °F 86% 30.40 in 10.0 mi Calm Calm - N/A   Overcast
7:53 AM 48.0 °F - 39.0 °F 71% 30.41 in 10.0 mi Calm Calm - N/A   Overcast
8:53 AM 48.9 °F - 36.0 °F 61% 30.42 in 10.0 mi Variable 4.6 mph - N/A   Overcast
9:53 AM 54.0 °F - 33.1 °F 45% 30.43 in 10.0 mi NNE 5.8 mph - N/A   Mostly Cloudy
10:53 AM 55.9 °F - 33.1 °F 42% 30.41 in 10.0 mi Calm Calm - N/A   Mostly Cloudy
11:53 AM 59.0 °F - 33.1 °F 38% 30.38 in 10.0 mi North 6.9 mph - N/A   Mostly Cloudy
12:53 PM 63.0 °F - 32.0 °F 31% 30.34 in 10.0 mi North 6.9 mph - N/A   Clear
1:53 PM 64.9 °F - 28.9 °F 26% 30.32 in 10.0 mi North 5.8 mph - N/A   Clear
2:53 PM 64.0 °F - 26.1 °F 24% 30.30 in 10.0 mi Calm Calm - N/A   Clear
3:53 PM 64.0 °F - 28.9 °F 27% 30.29 in 10.0 mi North 9.2 mph - N/A   Clear
4:53 PM 60.1 °F - 34.0 °F 38% 30.29 in 10.0 mi North 3.5 mph - N/A   Clear
5:53 PM 50.0 °F - 41.0 °F 71% 30.29 in 10.0 mi Calm Calm - N/A   Clear
6:53 PM 46.0 °F - 39.9 °F 79% 30.31 in 10.0 mi Calm Calm - N/A   Clear
7:53 PM 43.0 °F - 39.0 °F 86% 30.32 in 10.0 mi Calm Calm - N/A   Clear
8:53 PM 41.0 °F - 37.9 °F 89% 30.33 in 10.0 mi Calm Calm - N/A   Clear
9:53 PM 37.9 °F - 36.0 °F 93% 30.33 in 10.0 mi Calm Calm - N/A   Clear
10:53 PM 37.0 °F 34.5 °F 35.1 °F 93% 30.33 in 10.0 mi NNW 3.5 mph - N/A   Clear
11:53 PM 36.0 °F - 35.1 °F 97% 30.31 in 10.0 mi Calm Calm - N/A   Clear